KE4OGG Weather Reports


Display with metric or nautical units.
time (UTC)temp
F
wind
direction
speed
MPH
gust
MPH
rain 1hr
in
rain 24hr
in
rain mn
in
humidity
%
barometer
mb
20260903021027 83 0 0.0 1.0 0.00 0.00 0.00 55 1019.2
20260903020524 83 0 0.0 0.0 0.00 0.00 0.00 55 1019.2
20260903020045 83 0 0.0 0.0 0.00 0.00 0.00 54 1019.2
20260903015527 84 0 0.0 0.0 0.00 0.00 0.00 53 1019.1
20260903015025 84 0 0.0 0.0 0.00 0.00 0.00 54 1019.1
20260903014556 84 0 0.0 0.0 0.00 0.00 0.00 54 1019.1
20260903014026 83 0 0.0 0.0 0.00 0.00 0.00 54 1018.9
20260903013525 83 0 0.0 0.0 0.00 0.00 0.00 54 1018.8
20260903013049 83 0 0.0 0.0 0.00 0.00 0.00 54 1018.6
20260903012528 84 0 0.0 0.0 0.00 0.00 0.00 54 1018.5
20260903012028 84 0 0.0 0.0 0.00 0.00 0.00 52 1018.4
20260903011547 84 0 0.0 0.0 0.00 0.00 0.00 53 1018.4
20260903011026 84 0 0.0 0.0 0.00 0.00 0.00 52 1018.4
20260903010526 85 0 0.0 0.0 0.00 0.00 0.00 52 1018.4
20260903010045 85 0 0.0 0.0 0.00 0.00 0.00 51 1018.3
20260903005526 85 0 0.0 0.0 0.00 0.00 0.00 51 1018.2
20260903005025 85 0 0.0 0.0 0.00 0.00 0.00 50 1018.2
20260903004542 86 0 0.0 0.0 0.00 0.00 0.00 49 1018.2
20260903004023 86 0 0.0 0.0 0.00 0.00 0.00 48 1018.1
20260903003526 86 0 0.0 0.0 0.00 0.00 0.00 49 1018.1
20260903003051 86 0 0.0 0.0 0.00 0.00 0.00 48 1018.2
20260903002525 87 0 0.0 0.0 0.00 0.00 0.00 48 1018.1
20260903002026 87 0 0.0 0.0 0.00 0.00 0.00 48 1018.0
20260903001550 87 0 0.0 0.0 0.00 0.00 0.00 48 1018.0
20260903001027 87 0 0.0 0.0 0.00 0.00 0.00 47 1018.0
20260903000524 88 0 0.0 1.0 0.00 0.00 0.00 46 1018.0
20260903000046 88 0 0.0 1.0 0.00 0.00 0.00 45 1017.9
20260902235524 89 0 0.0 1.0 0.00 0.00 0.00 44 1017.8
20260902235024 90 0 0.0 0.0 0.00 0.00 0.00 42 1017.8
20260902234546 90 0 0.0 1.0 0.00 0.00 0.00 41 1017.8
20260902234024 90 0 0.0 1.0 0.00 0.00 0.00 40 1017.8
20260902233524 91 0 0.0 0.0 0.00 0.00 0.00 39 1017.8
20260902233049 91 0 0.0 0.0 0.00 0.00 0.00 38 1017.9
20260902232521 92 0 0.0 0.0 0.00 0.00 0.00 37 1017.9
20260902232027 92 0 0.0 1.0 0.00 0.00 0.00 38 1017.9
20260902231544 92 0 0.0 1.0 0.00 0.00 0.00 36 1017.9
20260902231024 92 0 0.0 0.0 0.00 0.00 0.00 38 1017.9
20260902230526 93 0 0.0 0.0 0.00 0.00 0.00 37 1017.9
20260902230047 93 0 0.0 1.0 0.00 0.00 0.00 34 1018.0
20260902225524 93 0 0.0 1.0 0.00 0.00 0.00 36 1018.0
20260902225028 94 0 0.0 1.0 0.00 0.00 0.00 34 1018.0
20260902224546 94 0 0.0 1.0 0.00 0.00 0.00 34 1018.1
20260902224023 94 0 0.0 4.0 0.00 0.00 0.00 34 1018.1
20260902223524 94 103 2.0 4.0 0.00 0.00 0.00 34 1018.1
20260902223051 94 103 1.0 3.0 0.00 0.00 0.00 34 1018.1
20260902222528 94 0 0.0 3.0 0.00 0.00 0.00 35 1018.2
20260902222023 94 107 0.0 1.0 0.00 0.00 0.00 35 1018.1
20260902221543 94 0 0.0 3.0 0.00 0.00 0.00 34 1018.2
20260902221024 94 0 0.0 3.0 0.00 0.00 0.00 33 1018.2
20260902220525 94 63 1.0 3.0 0.00 0.00 0.00 34 1018.2
20260902220047 95 60 0.0 3.0 0.00 0.00 0.00 34 1018.2
20260902215525 95 60 1.0 5.0 0.00 0.00 0.00 35 1018.1
20260902215024 95 0 0.0 5.0 0.00 0.00 0.00 34 1018.1
20260902214548 95 94 1.0 5.0 0.00 0.00 0.00 35 1018.1
20260902214027 95 100 1.0 4.0 0.00 0.00 0.00 35 1018.2
20260902213525 95 101 1.0 4.0 0.00 0.00 0.00 33 1018.1
20260902213049 95 28 0.0 4.0 0.00 0.00 0.00 34 1018.1
20260902212524 95 297 0.0 2.0 0.00 0.00 0.00 35 1018.1
20260902212027 95 311 0.0 2.0 0.00 0.00 0.00 34 1018.2
20260902211603 95 309 1.0 2.0 0.00 0.00 0.00 32 1018.2
20260902211024 95 97 0.0 2.0 0.00 0.00 0.00 32 1018.3
20260902210524 95 98 0.0 5.0 0.00 0.00 0.00 33 1018.3
20260902210110 95 98 1.0 5.0 0.00 0.00 0.00 34 1018.3
20260902205525 95 102 2.0 4.0 0.00 0.00 0.00 32 1018.3
20260902205027 95 0 1.0 4.0 0.00 0.00 0.00 34 1018.2
20260902204545 95 101 1.0 5.0 0.00 0.00 0.00 34 1018.3
20260902204027 95 107 2.0 8.0 0.00 0.00 0.00 33 1018.2
20260902203524 95 107 2.0 8.0 0.00 0.00 0.00 33 1018.3
20260902203044 96 101 3.0 8.0 0.00 0.00 0.00 32 1018.4
20260902202525 96 94 3.0 9.0 0.00 0.00 0.00 32 1018.4
20260902202025 96 84 4.0 9.0 0.00 0.00 0.00 32 1018.4
20260902201605 96 124 2.0 7.0 0.00 0.00 0.00 31 1018.4
20260902201025 96 95 3.0 7.0 0.00 0.00 0.00 33 1018.4
20260902200524 97 111 2.0 6.0 0.00 0.00 0.00 31 1018.5
20260902200046 97 93 1.0 4.0 0.00 0.00 0.00 32 1018.5
20260902195524 98 93 0.0 4.0 0.00 0.00 0.00 31 1018.5
20260902195023 98 317 0.0 3.0 0.00 0.00 0.00 31 1018.5
20260902194545 98 245 1.0 3.0 0.00 0.00 0.00 31 1018.7
20260902194026 99 347 0.0 2.0 0.00 0.00 0.00 30 1018.9
20260902193526 98 289 1.0 2.0 0.00 0.00 0.00 30 1018.9
20260902193043 98 312 0.0 4.0 0.00 0.00 0.00 30 1018.9
20260902192524 97 289 1.0 4.0 0.00 0.00 0.00 31 1018.9
20260902192025 98 93 1.0 4.0 0.00 0.00 0.00 31 1019.1
20260902191548 98 297 0.0 4.0 0.00 0.00 0.00 29 1019.1
20260902191024 97 101 1.0 4.0 0.00 0.00 0.00 32 1019.2
20260902190527 98 306 1.0 4.0 0.00 0.00 0.00 32 1019.2
20260902190045 97 306 0.0 4.0 0.00 0.00 0.00 32 1019.3
20260902185526 97 298 0.0 3.0 0.00 0.00 0.00 30 1019.4
20260902185027 97 129 1.0 3.0 0.00 0.00 0.00 27 1019.4
20260902184547 97 290 0.0 5.0 0.00 0.00 0.00 31 1019.4
20260902184027 96 0 0.0 5.0 0.00 0.00 0.00 32 1019.5
20260902183525 96 268 2.0 5.0 0.00 0.00 0.00 30 1019.6
20260902183047 96 13 1.0 5.0 0.00 0.00 0.00 33 1019.6
20260902182525 95 287 2.0 5.0 0.00 0.00 0.00 30 1019.7
20260902182024 95 299 3.0 5.0 0.00 0.00 0.00 31 1019.7
20260902181559 96 349 2.0 5.0 0.00 0.00 0.00 30 1019.7
20260902181033 96 319 0.0 4.0 0.00 0.00 0.00 32 1019.7
20260902180526 95 91 1.0 4.0 0.00 0.00 0.00 32 1019.7
20260902180107 96 311 2.0 4.0 0.00 0.00 0.00 32 1019.8
20260902175525 96 297 0.0 4.0 0.00 0.00 0.00 34 1019.8
20260902175024 96 320 0.0 4.0 0.00 0.00 0.00 36 1019.8
20260902174547 95 310 1.0 4.0 0.00 0.00 0.00 34 1019.9
20260902174023 95 0 1.0 4.0 0.00 0.00 0.00 36 1020.0
20260902173522 95 319 0.0 4.0 0.00 0.00 0.00 35 1020.1
20260902173042 94 313 2.0 4.0 0.00 0.00 0.00 34 1020.2
20260902172524 95 285 1.0 4.0 0.00 0.00 0.00 35 1020.2
20260902172027 94 307 0.0 4.0 0.00 0.00 0.00 36 1020.2
20260902171549 95 282 0.0 3.0 0.00 0.00 0.00 35 1020.3
20260902171025 94 356 0.0 2.0 0.00 0.00 0.00 35 1020.5
20260902170526 94 285 1.0 3.0 0.00 0.00 0.00 34 1020.5
20260902170044 94 319 1.0 3.0 0.00 0.00 0.00 35 1020.6
20260902165525 94 305 1.0 5.0 0.00 0.00 0.00 37 1020.5
20260902165028 93 292 0.0 5.0 0.00 0.00 0.00 38 1020.6
20260902164549 93 319 1.0 4.0 0.00 0.00 0.00 37 1020.7
20260902164025 93 290 1.0 4.0 0.00 0.00 0.00 37 1020.8
20260902163524 93 319 0.0 4.0 0.00 0.00 0.00 40 1020.7
20260902163046 93 307 1.0 4.0 0.00 0.00 0.00 40 1020.8
20260902162525 93 304 2.0 4.0 0.00 0.00 0.00 39 1020.8
20260902162026 93 205 0.0 3.0 0.00 0.00 0.00 42 1020.9
20260902161544 93 107 0.0 2.0 0.00 0.00 0.00 42 1020.9
20260902161025 93 79 0.0 4.0 0.00 0.00 0.00 43 1021.0
20260902160524 92 89 0.0 5.0 0.00 0.00 0.00 46 1021.0
20260902160046 92 107 2.0 5.0 0.00 0.00 0.00 45 1021.1
20260902155524 92 99 2.0 4.0 0.00 0.00 0.00 44 1021.1
20260902155024 92 0 0.0 5.0 0.00 0.00 0.00 46 1021.3
20260902154546 91 107 2.0 5.0 0.00 0.00 0.00 42 1021.1
20260902154025 92 122 0.0 4.0 0.00 0.00 0.00 44 1021.2
20260902153525 90 0 0.0 4.0 0.00 0.00 0.00 49 1021.3
20260902153044 90 120 2.0 4.0 0.00 0.00 0.00 45 1021.3
20260902152526 90 291 1.0 3.0 0.00 0.00 0.00 44 1021.4
20260902152024 90 103 0.0 5.0 0.00 0.00 0.00 49 1021.3
20260902151548 89 96 1.0 5.0 0.00 0.00 0.00 47 1021.3
20260902151433 90 101 2.0 4.0 0.00 0.00 0.00 45 1021.3
20260902150526 90 0 0.0 2.0 0.00 0.00 0.00 49 1021.4
20260902150042 89 308 0.0 4.0 0.00 0.00 0.00 49 1021.3
20260902145527 89 105 2.0 4.0 0.00 0.00 0.00 50 1021.4
20260902145025 89 65 2.0 3.0 0.00 0.00 0.00 49 1021.3
20260902144558 89 50 2.0 3.0 0.00 0.00 0.00 49 1021.1
20260902144025 88 0 0.0 2.0 0.00 0.00 0.00 49 1021.1
20260902143527 87 294 0.0 2.0 0.00 0.00 0.00 50 1021.1
20260902143049 88 296 0.0 2.0 0.00 0.00 0.00 50 1021.1
20260902142525 87 340 0.0 2.0 0.00 0.00 0.00 51 1021.1
20260902142025 86 342 1.0 4.0 0.00 0.00 0.00 51 1021.2
20260902141541 86 287 1.0 4.0 0.00 0.00 0.00 51 1021.1
20260902141026 87 285 1.0 4.0 0.00 0.00 0.00 49 1021.2
20260902140525 88 72 1.0 3.0 0.00 0.00 0.00 50 1021.1
20260902140054 87 0 0.0 3.0 0.00 0.00 0.00 52 1021.2
20260902135525 87 263 0.0 2.0 0.00 0.00 0.00 51 1021.3
20260902135025 87 0 0.0 2.0 0.00 0.00 0.00 52 1021.3
20260902134547 86 340 0.0 2.0 0.00 0.00 0.00 54 1021.3
20260902134025 85 0 0.0 2.0 0.00 0.00 0.00 55 1021.2
20260902133524 84 0 0.0 2.0 0.00 0.00 0.00 56 1021.2
20260902133045 84 300 0.0 2.0 0.00 0.00 0.00 56 1021.1
20260902132529 84 0 0.0 1.0 0.00 0.00 0.00 57 1021.1
20260902132024 83 0 0.0 1.0 0.00 0.00 0.00 59 1021.2
20260902131543 82 0 0.0 1.0 0.00 0.00 0.00 59 1021.1
20260902131027 81 0 0.0 0.0 0.00 0.00 0.00 60 1021.2
20260902130525 80 0 0.0 0.0 0.00 0.00 0.00 61 1021.2
20260902130049 79 0 0.0 0.0 0.00 0.00 0.00 62 1021.0
20260902125528 79 0 0.0 2.0 0.00 0.00 0.00 62 1021.0
20260902125024 78 307 0.0 2.0 0.00 0.00 0.00 62 1021.0
20260902124546 78 0 0.0 1.0 0.00 0.00 0.00 62 1021.0
20260902124025 78 0 0.0 1.0 0.00 0.00 0.00 63 1021.0
20260902123524 78 0 0.0 1.0 0.00 0.00 0.00 63 1021.0
20260902123046 78 0 0.0 1.0 0.00 0.00 0.00 63 1021.0
20260902122526 77 0 0.0 1.0 0.00 0.00 0.00 64 1021.0
20260902122040 77 311 0.0 0.0 0.00 0.00 0.00 64 1021.0
20260902121543 77 0 0.0 0.0 0.00 0.00 0.00 65 1021.0
20260902121026 76 0 0.0 1.0 0.00 0.00 0.00 66 1020.9
20260902120526 76 0 0.0 1.0 0.00 0.00 0.00 67 1020.7
20260902120050 75 0 0.0 1.0 0.00 0.00 0.00 68 1020.9
20260902115521 75 0 0.0 0.0 0.00 0.00 0.00 68 1020.9
20260902115025 75 0 0.0 1.0 0.00 0.00 0.00 69 1020.8
20260902114550 75 0 0.0 1.0 0.00 0.00 0.00 69 1020.8
20260902114026 74 0 0.0 0.0 0.00 0.00 0.00 69 1020.7
20260902113523 74 0 0.0 0.0 0.00 0.00 0.00 69 1020.6
20260902113051 74 0 0.0 0.0 0.00 0.00 0.00 69 1020.6
20260902112524 74 0 0.0 0.0 0.00 0.00 0.00 69 1020.6
20260902112026 74 0 0.0 1.0 0.00 0.00 0.00 69 1020.5
20260902111551 75 0 0.0 1.0 0.00 0.00 0.00 68 1020.4
20260902111024 75 0 0.0 1.0 0.00 0.00 0.00 69 1020.5
20260902110525 74 0 0.0 1.0 0.00 0.00 0.00 69 1020.3
20260902110047 74 0 0.0 1.0 0.00 0.00 0.00 70 1020.3
20260902105521 74 0 0.0 1.0 0.00 0.00 0.00 70 1020.3
20260902105024 74 41 0.0 1.0 0.00 0.00 0.00 71 1020.4
20260902104548 74 0 0.0 1.0 0.00 0.00 0.00 71 1020.3
20260902104025 74 0 0.0 1.0 0.00 0.00 0.00 71 1020.3
20260902103525 74 0 0.0 0.0 0.00 0.00 0.00 71 1020.2
20260902103046 75 0 0.0 1.0 0.00 0.00 0.00 71 1020.3
20260902102524 74 0 0.0 1.0 0.00 0.00 0.00 72 1020.2
20260902102023 74 0 0.0 0.0 0.00 0.00 0.00 72 1020.2
20260902101541 74 0 0.0 0.0 0.00 0.00 0.00 73 1020.1
20260902101024 74 0 0.0 0.0 0.00 0.00 0.00 73 1020.2
20260902100525 74 0 0.0 0.0 0.00 0.00 0.00 73 1020.1
20260902100042 74 0 0.0 0.0 0.00 0.00 0.00 72 1020.1
20260902095524 74 0 0.0 0.0 0.00 0.00 0.00 72 1020.1
20260902095024 74 0 0.0 0.0 0.00 0.00 0.00 71 1019.9
20260902094550 74 0 0.0 0.0 0.00 0.00 0.00 71 1019.9
20260902094027 74 0 0.0 0.0 0.00 0.00 0.00 71 1019.8
20260902093524 75 0 0.0 0.0 0.00 0.00 0.00 70 1019.8
20260902093046 75 0 0.0 0.0 0.00 0.00 0.00 69 1019.7
20260902092526 75 0 0.0 0.0 0.00 0.00 0.00 69 1019.7
20260902092023 75 0 0.0 0.0 0.00 0.00 0.00 69 1019.7
20260902091558 75 0 0.0 0.0 0.00 0.00 0.00 69 1019.5
20260902091026 75 0 0.0 0.0 0.00 0.00 0.00 69 1019.6
20260902090526 75 0 0.0 0.0 0.00 0.00 0.00 69 1019.5
20260902090047 75 0 0.0 0.0 0.00 0.00 0.00 69 1019.4
20260902085526 75 0 0.0 1.0 0.00 0.00 0.00 69 1019.4
20260902085029 75 0 0.0 1.0 0.00 0.00 0.00 68 1019.4
20260902084546 76 0 0.0 1.0 0.00 0.00 0.00 68 1019.3
20260902084028 76 0 0.0 0.0 0.00 0.00 0.00 68 1019.3
20260902083525 76 0 0.0 0.0 0.00 0.00 0.00 67 1019.4
20260902083049 76 0 0.0 0.0 0.00 0.00 0.00 67 1019.3
20260902082527 76 0 0.0 1.0 0.00 0.00 0.00 67 1019.2
20260902082024 76 0 0.0 1.0 0.00 0.00 0.00 67 1019.3
20260902081542 76 0 0.0 0.0 0.00 0.00 0.00 67 1019.2
20260902081023 76 0 0.0 0.0 0.00 0.00 0.00 67 1019.2
20260902080526 77 0 0.0 0.0 0.00 0.00 0.00 66 1019.1
20260902080108 77 0 0.0 1.0 0.00 0.00 0.00 66 1019.1
20260902075528 77 0 0.0 1.0 0.00 0.00 0.00 66 1019.0
20260902075025 77 0 0.0 1.0 0.00 0.00 0.00 66 1019.0
20260902074546 77 0 0.0 1.0 0.00 0.00 0.00 66 1019.1
20260902074027 77 359 0.0 1.0 0.00 0.00 0.00 66 1019.0
20260902073524 77 0 0.0 1.0 0.00 0.00 0.00 66 1019.1
20260902073045 77 0 0.0 1.0 0.00 0.00 0.00 66 1019.2
20260902072523 77 0 0.0 1.0 0.00 0.00 0.00 67 1019.2
20260902072028 77 326 0.0 1.0 0.00 0.00 0.00 67 1019.2
20260902071543 76 0 0.0 0.0 0.00 0.00 0.00 67 1019.2
20260902071026 76 0 0.0 0.0 0.00 0.00 0.00 67 1019.3
20260902070524 76 0 0.0 0.0 0.00 0.00 0.00 67 1019.3
20260902070050 76 0 0.0 0.0 0.00 0.00 0.00 67 1019.4
20260902065527 77 0 0.0 0.0 0.00 0.00 0.00 67 1019.4
20260902065026 77 0 0.0 0.0 0.00 0.00 0.00 67 1019.4
20260902064604 77 0 0.0 0.0 0.00 0.00 0.00 67 1019.3
20260902064028 77 0 0.0 0.0 0.00 0.00 0.00 67 1019.4
20260902063526 77 0 0.0 0.0 0.00 0.00 0.00 66 1019.6
20260902063047 77 0 0.0 0.0 0.00 0.00 0.00 66 1019.5
20260902062530 77 0 0.0 0.0 0.00 0.00 0.00 66 1019.5
20260902062024 77 0 0.0 0.0 0.00 0.00 0.00 66 1019.6
20260902061553 77 0 0.0 0.0 0.00 0.00 0.00 66 1019.6
20260902061032 77 0 0.0 0.0 0.00 0.00 0.00 66 1019.6
20260902060525 77 0 0.0 0.0 0.00 0.00 0.00 66 1019.6
20260902060050 77 0 0.0 0.0 0.00 0.00 0.00 66 1019.5
20260902055526 77 0 0.0 0.0 0.00 0.00 0.00 65 1019.6
20260902055026 78 0 0.0 0.0 0.00 0.00 0.00 65 1019.6
20260902054546 78 0 0.0 1.0 0.00 0.00 0.00 65 1019.7
20260902054026 78 0 0.0 1.0 0.00 0.00 0.00 65 1019.8
20260902053527 78 0 0.0 0.0 0.00 0.00 0.00 64 1019.7
20260902053053 78 0 0.0 0.0 0.00 0.00 0.00 64 1019.7
20260902052526 78 0 0.0 0.0 0.00 0.00 0.00 65 1019.8
20260902052025 78 0 0.0 0.0 0.00 0.00 0.00 64 1019.6
20260902051546 78 0 0.0 0.0 0.00 0.00 0.00 64 1019.5
20260902051023 79 0 0.0 1.0 0.00 0.00 0.00 64 1019.6
20260902050525 78 0 0.0 1.0 0.00 0.00 0.00 65 1019.6
20260902050050 78 0 0.0 0.0 0.00 0.00 0.00 65 1019.5
20260902045525 78 0 0.0 0.0 0.00 0.00 0.00 65 1019.6
20260902045029 79 0 0.0 0.0 0.00 0.00 0.00 65 1019.5
20260902044547 79 0 0.0 0.0 0.00 0.00 0.00 64 1019.5
20260902044027 79 0 0.0 0.0 0.00 0.00 0.00 64 1019.4
20260902043523 79 0 0.0 0.0 0.00 0.00 0.00 64 1019.5
20260902043045 79 0 0.0 0.0 0.00 0.00 0.00 64 1019.4
20260902042526 79 0 0.0 0.0 0.00 0.00 0.00 64 1019.5
20260902042026 80 0 0.0 0.0 0.00 0.00 0.00 63 1019.5
20260902041543 80 0 0.0 0.0 0.00 0.00 0.00 63 1019.5
20260902041025 80 0 0.0 1.0 0.00 0.00 0.00 63 1019.4
20260902040525 80 0 0.0 1.0 0.00 0.00 0.00 63 1019.5
20260902040050 80 20 0.0 1.0 0.00 0.00 0.00 63 1019.6
20260902035524 80 0 0.0 1.0 0.00 0.00 0.00 63 1019.5
20260902035024 80 0 0.0 1.0 0.00 0.00 0.00 63 1019.5
20260902034557 80 0 0.0 0.0 0.00 0.00 0.00 63 1019.5
20260902034028 80 0 0.0 0.0 0.00 0.00 0.00 63 1019.5
20260902033524 80 0 0.0 0.0 0.00 0.00 0.00 63 1019.5
20260902033058 80 0 0.0 0.0 0.00 0.00 0.00 62 1019.3
20260902032524 80 0 0.0 0.0 0.00 0.00 0.00 62 1019.5
20260902032030 80 0 0.0 0.0 0.00 0.00 0.00 62 1019.5
20260902031551 80 0 0.0 0.0 0.00 0.00 0.00 62 1019.6
20260902031023 81 0 0.0 0.0 0.00 0.00 0.00 62 1019.5
20260902030524 81 0 0.0 0.0 0.00 0.00 0.00 61 1019.6
20260902030040 81 0 0.0 1.0 0.00 0.00 0.00 61 1019.6
20260902025529 81 0 0.0 1.0 0.00 0.00 0.00 60 1019.6
20260902025025 81 0 0.0 0.0 0.00 0.00 0.00 59 1019.6
20260902024547 81 0 0.0 1.0 0.00 0.00 0.00 58 1019.6
20260902024025 81 0 0.0 1.0 0.00 0.00 0.00 59 1019.5
20260902023525 81 0 0.0 1.0 0.00 0.00 0.00 58 1019.6
20260902023045 82 0 0.0 1.0 0.00 0.00 0.00 57 1019.7
20260902022526 82 0 0.0 0.0 0.00 0.00 0.00 57 1019.6
20260902022024 82 0 0.0 0.0 0.00 0.00 0.00 56 1019.4
20260902021543 82 0 0.0 0.0 0.00 0.00 0.00 55 1019.4